Lapse_Rate
6.4 6.2 6.4 6.5 6.4 6.2 6.2 6.2 6.3 6.3 6.4 6.1 5.9 5.9 5.6 5.5 5.2 4.8 4.6 4.9 4.9 5.0 5.2 5.3 5.4 5.6 5.7 5.7 6.1 6.2 6.3 6.5 6.2 6.2 6.0 6.2 6.4 6.6 6.8 6.5 6.6 9.3 6.6
7.0 6.2 6.0 6.3 6.3 6.3 6.3 6.5 6.4 6.1 6.0 6.0 6.0 5.7 5.6 5.5 5.3 5.0 5.2 5.2 5.0 5.3 5.6 5.5 5.5 5.9 6.0 6.1 6.3 6.5 6.9 6.6 6.4 6.5 6.5 6.3 6.3 6.4 6.6 6.3 6.8 7.4 6.8
6.8 6.8 6.8 6.1 6.3 6.4 6.4 6.5 6.3 6.1 6.0 6.0 6.0 5.8 5.8 5.6 5.4 5.3 5.3 5.1 5.2 5.7 5.8 5.7 5.9 6.0 6.1 6.2 6.5 6.7 6.6 6.6 6.8 6.4 6.1 7.3 7.8 7.0 6.8 6.4 6.7 6.5 6.5
7.1 6.6 7.5 6.0 6.2 6.3 6.4 6.4 6.2 6.3 6.2 6.0 5.9 5.9 5.8 5.8 5.7 5.6 5.5 5.2 5.5 5.8 5.8 6.2 6.3 6.3 6.1 6.3 6.4 6.4 6.5 6.5 6.5 6.8 7.8 7.6 9.0 6.7 6.7 6.5 6.5 6.3 6.5
6.8 6.4 6.7 5.9 6.1 6.1 6.2 6.2 6.3 6.1 6.0 5.9 6.1 6.0 6.0 6.0 5.7 5.6 5.4 5.5 5.6 5.8 6.1 6.4 6.5 6.4 6.2 6.2 6.4 6.4 6.3 6.4 6.4 7.1 7.4 7.2 8.4 6.8 6.5 6.6 6.1 6.3 6.7
6.9 6.8 6.1 5.7 6.1 6.0 6.0 6.1 6.2 6.0 6.0 6.0 5.9 6.0 6.0 5.7 5.9 5.7 5.6 5.6 5.7 5.9 6.3 6.5 6.3 6.3 6.2 6.4 6.3 6.5 6.2 6.5 6.6 7.4 7.1 6.9 7.3 6.4 6.3 6.3 6.3 6.0 6.0
7.4 6.8 6.8 5.9 5.8 5.9 6.1 6.1 5.9 6.0 5.8 5.7 5.9 6.0 6.0 6.0 6.0 5.9 5.9 5.8 5.8 6.0 6.2 6.4 6.4 6.5 6.4 6.3 6.3 6.0 6.3 6.7 7.5 7.4 7.3 7.2 7.3 6.0 6.5 6.3 6.5 6.2 5.9
7.9 6.9 7.0 6.0 5.9 5.8 5.9 5.9 5.9 5.9 5.8 5.9 5.9 6.0 6.0 6.0 6.0 6.0 5.9 6.0 6.0 6.3 6.5 6.7 6.7 6.5 6.4 6.1 6.3 6.4 6.1 6.3 7.5 7.4 7.1 7.2 6.0 5.8 6.2 6.6 6.7 6.7 6.4
7.1 7.2 6.9 6.8 6.4 5.9 6.1 6.0 5.9 5.7 5.8 5.8 5.9 5.9 5.9 6.1 6.3 5.8 5.9 6.1 6.2 6.4 6.6 6.7 6.6 6.6 6.3 6.0 6.0 6.4 6.5 6.5 7.5 7.2 7.7 7.4 5.4 5.6 6.1 6.6 6.5 5.9 6.6
7.7 7.5 7.1 6.7 6.6 7.1 7.0 6.3 6.2 6.0 6.0 6.2 6.1 6.1 6.1 6.2 6.2 6.1 6.5 6.1 6.2 6.5 6.7 6.8 6.8 6.7 6.5 6.1 5.9 6.1 6.5 6.2 7.8 7.3 7.4 7.3 5.7 5.9 6.4 6.2 6.7 6.3 6.1
7.7 7.6 7.6 7.7 6.9 6.4 6.6 6.8 6.4 6.3 6.5 6.4 6.5 6.4 6.5 7.1 7.0 7.0 5.6 5.9 6.2 6.4 6.7 6.7 6.5 6.5 5.9 5.8 5.7 5.9 6.0 7.3 7.3 7.6 7.6 5.9 5.5 6.3 6.6 6.4 6.2 6.4 6.7
8.8 8.1 8.1 7.2 6.7 7.1 6.9 6.8 6.6 7.1 7.6 7.3 7.0 6.9 6.9 6.4 6.5 6.5 6.3 5.3 6.1 6.2 6.2 6.0 5.8 5.9 6.7 7.6 7.5 6.7 8.2 7.3 7.4 7.0 7.8 5.5 6.0 6.3 6.7 6.6 6.3 6.1 6.6
8.7 8.8 8.3 7.5 6.8 7.1 6.4 6.4 6.5 6.8 6.8 6.8 6.5 6.5 6.1 6.3 6.5 7.1 7.3 7.2 6.9 6.3 7.8 7.4 7.2 7.3 6.6 6.6 6.6 6.8 6.8 6.6 7.5 7.5 7.3 4.8 5.2 6.2 6.6 6.6 6.3 5.8 6.2
7.8 8.1 7.9 7.3 6.9 6.7 6.1 6.9 6.3 6.7 6.6 7.0 6.5 5.8 5.8 6.7 6.6 6.5 7.0 6.8 6.5 7.3 6.9 6.8 7.3 6.2 6.3 6.2 6.3 6.0 5.9 6.2 6.8 7.0 7.1 4.8 4.9 5.8 6.7 7.1 6.8 6.2 5.9
7.2 8.5 8.1 7.1 7.0 6.8 6.4 6.7 6.8 6.4 7.2 7.2 6.2 5.9 6.1 6.8 6.5 6.3 6.6 6.7 6.6 6.7 6.9 7.0 6.6 6.5 6.4 6.9 6.7 6.0 6.0 5.6 5.7 6.5 6.7 5.8 4.8 5.6 6.6 6.8 7.1 6.9 6.4
7.4 7.6 7.4 6.6 6.5 6.4 6.4 6.0 6.2 6.1 6.4 6.6 6.5 6.3 5.8 6.5 6.6 6.4 6.8 6.8 7.3 6.7 7.0 6.4 6.5 6.8 7.0 6.9 7.1 6.5 6.3 6.0 5.2 5.5 6.7 7.1 4.8 5.0 5.9 6.5 6.9 7.1 6.8
7.2 6.9 6.6 6.4 6.2 6.1 6.1 5.8 6.1 6.3 6.4 7.1 6.9 6.3 6.2 6.1 5.8 6.9 6.0 6.2 7.0 6.6 6.1 6.3 6.5 6.5 7.3 7.2 7.2 7.1 7.1 6.4 6.3 5.6 6.0 6.7 7.3 5.7 5.2 6.1 6.7 6.7 6.8
7.4 6.5 6.4 7.1 6.5 6.4 6.2 6.0 6.5 6.6 6.9 6.9 6.8 6.9 6.5 7.0 7.2 6.8 6.3 7.0 6.5 6.4 6.9 7.2 7.4 7.4 7.5 7.5 7.4 7.5 7.5 7.0 6.5 6.5 6.9 6.3 6.4 7.4 7.1 6.1 6.6 6.8 6.8
6.4 6.2 6.1 6.2 6.4 6.2 5.6 6.1 6.6 6.2 6.1 6.4 6.3 6.6 6.8 5.8 6.0 6.0 6.6 7.2 6.0 6.9 6.4 7.1 7.1 6.6 7.5 8.0 7.8 7.9 7.5 7.3 7.2 8.0 7.3 7.0 6.8 6.7 7.4 7.4 6.1 6.6 6.8
6.8 6.3 6.1 6.4 6.2 5.9 5.4 6.1 6.6 6.1 6.2 7.0 6.8 6.7 6.2 6.4 6.5 6.4 6.3 6.1 5.9 6.3 7.1 6.7 6.5 7.1 7.7 7.6 7.6 8.0 7.2 7.8 8.1 8.4 8.3 8.2 7.6 7.3 7.0 6.1 6.7 8.3 6.8
6.8 6.6 6.1 6.0 5.9 7.2 7.3 7.3 7.3 8.1 7.3 7.3 7.0 6.8 6.6 6.7 6.4 6.3 6.3 6.5 6.3 7.1 7.1 6.8 7.6 7.5 9.0 7.3 7.7 9.1 7.9 7.9 8.3 7.9 8.1 7.9 7.3 7.2 6.6 6.1 6.4 6.2 7.2
7.0 6.3 6.2 6.1 6.2 6.0 7.5 6.9 7.4 7.1 7.2 7.8 7.5 6.7 6.6 6.7 6.3 6.5 6.6 7.2 6.8 7.6 6.9 7.3 7.4 8.2 8.3 7.5 8.6 6.7 8.3 8.9 9.3 9.2 8.4 8.4 7.0 7.2 7.0 6.6 6.0 5.8 6.2
6.7 6.1 6.0 5.9 6.0 6.0 6.6 6.6 6.0 6.5 6.8 7.2 7.4 7.5 7.1 6.7 6.5 6.4 6.5 7.0 6.7 7.2 8.6 7.6 7.7 7.3 8.7 7.6 7.1 8.1 8.1 7.9 8.6 9.0 8.4 8.5 7.5 7.8 7.2 6.8 6.1 5.8 5.5
6.3 6.1 6.0 5.9 5.8 6.1 5.8 6.3 6.6 7.6 8.2 8.9 7.8 7.8 7.5 6.6 6.6 6.6 6.8 6.5 6.5 7.7 7.2 7.5 7.2 7.5 7.5 8.7 8.1 7.3 7.1 7.7 8.3 8.1 9.1 8.6 8.5 8.4 7.2 7.8 7.4 6.7 6.1
6.4 5.9 5.8 5.5 5.5 6.1 5.7 6.4 6.9 7.1 8.7 8.7 7.5 6.4 6.6 6.2 6.3 6.9 6.7 6.6 6.9 7.7 7.1 7.1 7.0 6.9 7.4 8.0 8.9 8.6 7.7 7.4 6.6 8.5 8.2 8.8 9.3 8.8 8.6 8.6 8.0 7.6 7.2
6.3 5.8 5.7 5.1 4.9 5.2 5.2 5.6 6.0 6.9 7.4 7.6 7.0 7.0 7.2 6.9 6.7 6.3 6.6 6.7 7.3 7.6 7.3 7.5 7.1 7.0 7.5 7.6 8.1 8.2 9.0 8.8 8.8 8.7 8.6 8.6 8.7 9.2 8.6 9.2 9.1 8.9 7.9
Wind_Speed
6 10 19 17 14 13 12 14 16 16 15 16 17 16 14 12 11 11 11 9 12 12 11 11 12 12 12 12 10 9 7 7 8 9 11 10 9 8 8 8 6 10 11
11 8 15 18 16 11 13 15 14 15 16 16 15 15 13 11 9 9 9 9 11 11 10 11 11 10 10 10 9 7 4 6 6 8 8 7 5 6 7 7 5 10 11
8 10 13 15 13 12 13 14 15 16 16 15 14 13 11 9 7 6 8 9 9 9 9 10 8 8 8 9 8 6 5 3 2 6 6 4 6 6 8 7 9 9 12
10 10 12 10 11 12 14 14 15 16 15 14 13 11 9 7 6 5 6 7 7 7 8 8 7 7 7 7 7 8 5 4 4 4 3 4 4 8 8 8 10 11 11
9 10 9 8 10 12 13 14 15 15 15 13 12 10 9 7 6 5 5 5 5 7 6 5 6 6 6 7 7 7 5 4 2 2 2 4 2 8 7 7 10 9 6
10 10 9 9 10 12 13 14 15 14 13 11 12 11 9 8 6 4 4 3 5 5 5 4 5 6 7 7 8 8 7 4 3 2 0 4 2 7 6 5 8 9 9
11 11 11 11 11 12 13 14 14 14 13 11 11 10 8 7 5 4 4 3 3 3 3 4 5 6 7 8 8 7 7 5 5 3 2 2 1 3 4 6 10 9 8
12 12 11 11 13 13 13 14 14 13 12 10 10 9 8 6 5 3 3 2 3 3 4 5 6 7 7 8 8 8 7 5 5 6 2 3 4 3 5 5 8 9 9
12 11 10 12 13 14 13 13 13 12 12 10 10 9 9 7 5 3 1 1 3 4 5 6 6 6 6 5 6 7 7 5 4 4 5 2 5 5 5 7 7 7 9
10 11 11 12 13 14 13 12 12 12 11 10 9 9 6 4 3 2 3 3 6 7 7 7 6 6 6 6 6 7 7 5 6 5 4 2 2 6 7 8 8 9 9
9 10 12 12 12 11 11 12 11 10 9 10 8 5 4 2 2 2 4 7 6 6 9 7 6 6 7 5 6 7 7 7 8 5 5 1 4 6 9 8 8 10 9
13 11 9 11 12 12 9 9 9 10 10 9 8 6 4 2 2 5 5 7 5 4 4 7 8 7 5 7 7 6 6 8 7 6 5 4 5 7 9 9 9 9 9
14 10 11 10 11 11 8 8 8 9 9 9 9 8 4 2 3 4 3 3 1 2 3 4 5 5 6 7 7 7 7 7 7 7 6 7 7 7 11 12 12 11 10
13 13 12 12 11 11 10 10 8 8 8 9 9 7 5 4 4 3 2 1 1 2 2 4 5 5 7 7 7 8 8 7 7 8 8 7 8 7 11 12 14 14 12
16 15 13 12 11 13 12 10 10 9 10 10 9 9 8 7 5 4 3 3 1 0 0 2 4 6 7 9 7 7 8 7 8 8 8 7 8 7 10 12 13 15 15
15 15 14 14 14 14 11 12 9 10 10 11 10 11 11 10 8 6 5 3 2 1 2 2 3 4 5 7 7 8 8 8 6 8 8 8 6 6 8 12 11 14 17
14 15 16 15 15 13 13 13 12 12 11 11 12 12 12 12 11 8 6 4 3 2 2 3 4 3 4 4 5 7 8 8 7 5 5 6 7 4 5 6 13 14 15
14 15 15 13 14 14 12 12 12 12 12 12 12 11 14 12 11 7 6 4 4 3 3 3 3 4 3 3 4 5 6 7 7 5 4 5 6 8 6 4 6 12 15
17 15 16 15 15 14 13 12 13 10 10 10 11 11 11 8 6 8 6 5 4 4 4 2 2 3 4 4 5 5 4 4 3 4 4 3 3 5 7 4 8 7 11
15 15 15 13 15 14 9 8 6 6 6 7 6 7 6 9 7 7 4 3 5 4 2 2 3 3 4 4 6 5 3 3 4 4 5 6 8 7 6 5 4 5 6
16 15 16 15 15 10 8 8 7 8 7 6 8 9 9 6 6 6 4 5 5 4 2 3 3 3 3 2 4 4 1 2 6 3 4 6 7 7 7 8 6 5 4
17 17 16 16 14 12 9 7 7 7 7 7 8 8 7 7 7 5 5 5 5 3 3 3 3 3 2 1 2 2 2 3 1 4 4 6 7 8 8 8 8 9 8
18 18 16 16 15 14 12 7 5 4 4 5 5 5 7 10 8 8 7 4 4 4 3 3 2 3 3 1 1 3 2 1 4 1 2 4 7 7 9 9 10 9 11
18 17 16 16 15 13 13 11 12 9 9 8 6 6 6 8 9 9 7 6 5 3 2 1 2 2 2 2 1 2 1 3 2 2 0 2 3 5 6 6 7 8 10
18 16 16 16 15 14 14 13 11 12 9 7 5 5 6 6 9 9 8 6 4 4 3 2 2 2 2 2 2 2 2 2 2 2 5 5 3 2 4 5 5 4 6
18 17 17 16 16 16 16 16 15 13 12 9 6 5 6 6 7 9 9 7 6 4 4 4 4 4 3 3 4 3 3 2 2 3 5 5 7 4 5 4 5 6 6
Wind_Direction
117 128 143 144 143 129 127 129 125 124 128 127 128 126 119 118 114 104 104 104 93 86 80 74 70 65 62 60 53 62 94 106 113 113 108 99 86 78 93 102 140 120 126
139 125 144 146 149 138 128 134 122 124 130 134 135 128 127 127 111 97 105 97 89 83 78 72 66 60 54 53 46 40 61 127 119 120 111 105 85 102 90 101 126 97 138
141 130 142 138 146 141 139 144 133 133 135 137 137 134 136 131 117 106 99 90 87 91 84 76 65 58 45 34 29 27 8 25 135 118 110 86 62 98 97 95 120 113 104
148 150 149 145 148 146 148 149 139 139 141 136 137 137 135 130 135 115 91 83 86 82 71 62 54 46 32 28 16 12 355 345 357 86 102 76 61 94 106 103 97 118 113
159 161 159 153 149 140 145 148 147 142 131 129 134 138 142 143 138 116 93 85 85 77 69 60 49 36 23 13 5 350 338 356 6 25 84 78 44 103 117 119 121 124 130
156 163 161 163 151 141 148 150 152 143 132 136 145 148 148 142 144 122 115 106 89 79 65 45 35 11 358 353 352 344 328 336 341 13 80 101 95 106 130 136 130 126 129
149 158 160 159 148 147 149 145 149 151 149 147 143 149 149 160 154 148 135 104 80 58 42 26 9 354 341 340 343 342 337 335 317 345 103 204 126 144 149 143 148 145 157
148 153 156 160 156 149 149 148 153 149 149 148 149 154 163 174 176 157 106 66 19 9 355 357 345 340 339 331 338 338 340 346 337 333 278 175 135 169 168 178 165 172 164
147 152 158 160 157 155 156 151 152 154 158 159 160 161 177 182 169 176 199 324 342 331 321 339 338 335 337 335 335 340 335 350 342 334 333 286 159 178 179 181 172 162 178
157 162 163 159 153 156 155 161 164 166 167 169 164 167 168 164 186 217 307 342 333 329 335 332 351 3 9 28 13 0 354 337 1 342 340 25 212 191 187 185 190 183 173
172 170 167 160 157 157 162 169 168 167 173 172 168 177 188 224 254 303 355 336 313 324 334 349 23 33 31 39 32 10 347 343 330 337 324 75 251 232 207 196 193 199 191
176 177 175 169 170 171 173 172 174 182 185 195 199 211 224 252 336 323 308 333 294 304 351 26 34 42 31 13 4 350 340 333 308 318 314 328 309 204 207 199 204 200 213
180 178 182 178 182 179 172 186 189 193 201 207 215 221 220 263 310 321 325 358 30 6 12 25 16 27 22 0 345 340 338 324 312 306 320 295 300 233 212 206 201 201 218
189 191 190 193 190 193 192 196 199 204 205 212 215 213 219 234 263 271 298 317 7 5 23 13 8 8 355 348 339 328 321 322 318 309 304 304 297 233 220 216 210 202 216
193 195 193 195 198 197 205 208 211 216 215 217 219 220 223 232 251 259 262 235 284 180 13 340 350 343 337 333 336 334 327 323 316 308 304 325 299 291 230 222 217 218 213
198 198 196 202 204 202 209 213 218 219 221 222 222 226 226 233 243 247 242 245 250 245 280 302 318 326 329 328 332 337 326 318 313 311 304 305 320 308 263 235 238 231 225
203 202 203 204 204 207 211 215 221 220 221 226 228 226 224 227 237 241 238 231 248 258 271 286 302 303 306 324 326 325 321 318 306 304 309 312 310 289 293 276 239 235 230
203 204 206 206 205 210 215 213 218 226 223 228 234 230 232 239 242 231 236 225 217 229 267 298 311 309 320 322 323 321 324 318 319 295 291 299 302 296 270 245 273 236 232
203 204 207 206 207 208 215 222 216 220 225 235 242 247 248 250 236 233 237 232 212 227 235 279 275 292 307 321 316 317 325 326 336 358 11 18 8 310 292 271 279 270 246
208 210 210 208 211 207 209 212 215 222 230 226 231 229 227 230 213 240 251 219 211 233 218 227 250 250 297 313 310 318 341 81 39 67 59 51 27 19 5 331 300 273 291
214 213 212 209 214 210 206 210 219 218 218 223 231 232 228 234 221 219 207 169 193 215 218 209 236 261 267 294 305 339 83 166 52 49 55 38 25 22 21 29 18 1 338
215 216 215 216 214 215 209 210 216 207 221 227 225 224 222 216 216 203 178 178 185 198 210 217 219 248 278 305 338 290 340 158 78 70 63 43 34 31 27 30 24 20 14
213 214 216 217 217 217 217 208 186 196 209 212 225 221 217 218 197 193 179 183 187 216 215 193 199 216 267 156 331 324 269 9 337 108 44 33 29 37 33 33 38 42 34
212 211 212 217 219 214 203 206 209 218 226 229 226 222 210 200 190 188 187 187 193 211 199 175 180 200 226 271 201 185 329 340 336 294 277 27 28 41 39 37 36 45 32
210 208 209 213 218 214 205 209 208 220 227 223 208 203 213 194 195 193 191 185 194 213 196 204 190 217 212 277 244 219 233 211 210 272 308 321 322 21 20 9 10 21 24
209 208 209 208 214 209 210 209 211 215 219 216 207 211 216 202 192 199 193 195 204 211 213 209 205 206 235 242 238 237 256 277 283 277 293 312 318 324 338 355 349 341 349